Lid_Strength_Index
14 14 14 14 14 14 15 16 16 16 15 15 14 13 13 13 13 13 14 14 14 14 14 14 14 14 13 14 14 14 15 15 15 18 18 17 16 15 15 16 16 16 15
14 14 14 15 15 14 15 15 16 17 16 15 15 14 14 13 14 14 13 13 14 14 14 14 14 13 14 14 14 14 13 14 15 19 19 18 17 16 16 16 17 17 17
13 14 14 15 15 14 14 14 15 16 16 15 15 15 14 14 14 14 14 13 13 13 13 14 14 15 14 14 15 14 14 14 14 18 20 19 18 16 18 18 18 18 17
14 14 14 14 14 13 13 14 15 15 16 15 15 14 13 13 13 14 14 14 13 13 13 13 14 14 14 14 14 15 15 15 15 15 20 20 19 17 16 18 19 17 18
14 15 15 15 14 14 14 14 14 15 15 14 14 13 13 13 13 14 14 14 14 13 13 13 13 13 12 13 14 13 15 15 15 15 16 21 20 18 18 17 18 17 17
12 13 12 12 12 13 13 13 13 14 14 14 14 14 14 13 11 11 12 14 13 13 13 12 12 12 12 11 10 10 12 14 14 15 15 17 18 17 16 17 17 18 19
12 12 12 12 13 12 12 13 13 14 14 15 15 15 15 14 11 11 11 13 14 13 12 12 11 12 12 12 11 10 10 10 11 13 15 15 16 17 17 17 17 17 17
12 12 11 11 12 12 12 13 13 13 14 14 15 15 15 15 12 12 11 13 14 14 13 12 11 11 11 12 12 13 13 12 12 12 13 13 14 15 16 15 16 15 17
11 11 11 12 13 12 13 13 13 13 14 14 14 15 16 16 13 13 13 14 14 14 13 13 13 12 10 9 11 13 13 14 11 10 10 10 11 12 14 15 17 18 22
12 12 13 13 15 15 15 15 15 15 15 15 15 15 15 16 14 13 13 15 15 15 13 12 11 12 10 9 10 12 14 13 13 13 13 11 11 12 13 15 16 17 18
14 15 16 16 18 18 19 18 18 19 18 19 18 18 18 17 17 14 14 15 15 15 14 13 12 10 9 8 9 10 12 12 12 13 13 13 14 14 14 14 15 15 17
17 17 19 20 20 20 21 21 21 21 22 22 21 21 19 18 17 16 14 13 13 14 14 12 11 9 8 8 9 8 9 9 13 13 14 14 14 15 15 14 15 15 15
19 21 21 21 21 21 22 22 23 22 23 23 22 22 22 19 18 16 15 14 13 14 13 11 9 8 8 8 7 7 8 9 11 14 14 15 15 14 14 15 15 16 18
22 22 21 22 22 22 22 22 23 24 24 24 24 24 23 22 21 20 19 18 15 15 14 12 11 9 9 9 9 7 8 9 10 12 13 14 15 15 16 16 17 18 19
21 21 22 23 23 24 23 23 22 21 20 21 21 21 21 20 19 16 16 17 16 15 14 14 14 13 12 11 10 9 8 8 10 11 12 14 15 16 17 17 18 19 20
22 22 23 23 24 23 23 23 19 17 16 15 14 15 16 14 14 14 14 13 13 12 14 15 15 14 13 11 11 11 10 9 9 10 12 14 15 17 19 19 19 20 21
23 23 23 23 24 24 24 24 24 21 16 14 14 14 13 13 13 13 13 13 13 13 15 15 14 13 11 11 11 11 11 10 9 12 13 15 16 17 18 20 20 20 20
21 22 24 24 24 24 23 23 22 23 22 20 16 15 14 12 12 12 12 12 15 15 15 15 15 13 11 11 11 10 11 12 11 14 15 15 16 18 18 20 20 21 21
21 22 23 24 23 23 22 22 21 21 21 20 18 16 16 13 12 12 11 14 15 16 15 14 14 11 10 10 10 9 12 12 13 15 15 16 16 18 19 20 20 21 21
22 21 21 22 23 23 23 22 22 21 20 19 19 18 17 16 16 14 13 14 12 12 12 11 9 9 9 9 10 11 12 13 14 15 16 16 17 17 19 20 21 22 22
21 22 22 22 23 22 22 22 22 21 21 21 20 19 14 18 18 18 17 16 16 11 10 10 12 11 10 11 12 12 13 14 16 16 17 17 18 19 19 20 21 22 22
22 23 23 23 23 22 22 21 22 22 22 22 21 21 16 20 20 19 18 17 17 16 14 14 14 13 12 12 13 14 15 16 17 17 18 18 19 19 20 21 21 21 22
23 23 24 23 23 23 22 22 22 22 22 22 22 22 21 21 21 20 19 18 18 17 16 15 15 15 15 15 14 15 16 17 17 17 18 19 19 20 20 21 21 21 22
23 24 24 24 24 23 23 23 22 22 22 22 22 22 22 21 21 21 21 20 19 19 18 17 17 17 17 16 16 16 16 16 16 17 17 18 19 19 20 20 20 21 21
26 25 25 25 25 25 24 24 23 23 22 22 22 22 22 21 21 21 21 20 21 21 20 20 19 19 19 19 18 17 16 17 17 17 18 19 20 20 20 20 20 21 21
27 28 28 26 25 25 25 25 24 24 24 23 23 23 22 23 22 22 22 21 21 21 21 21 21 20 19 19 18 17 17 17 18 18 18 19 20 20 20 21 21 21 21